This is the latest recevied weather packets stored in our database for station/object DB0OHA-13. If no packets are shown the sender has not sent any weather packets the latest 10 day(s).
| Time | Temp. | Humidity | Pressure | Rain* | Wind** | Luminosity | Snow |
|---|---|---|---|---|---|---|---|
| 1777723871 | 25.56° C | 34% | 1019.3 hPa | 0 mm | - | 765 W/m² | - |
| 1777722671 | 24.44° C | 35% | 1019.6 hPa | 0 mm | - | 768 W/m² | - |
| 1777722070 | 23.89° C | 34% | 1019.7 hPa | 0 mm | - | 773 W/m² | - |
| 1777720870 | 24.44° C | 36% | 1020.2 hPa | 0 mm | - | 774 W/m² | - |
| 1777720270 | 23.89° C | 36% | 1020.2 hPa | 0 mm | - | 771 W/m² | - |
| 1777719670 | 23.33° C | 37% | 1020.3 hPa | 0 mm | - | 763 W/m² | - |
| 1777719070 | 23.89° C | 36% | 1020.5 hPa | 0 mm | - | 722 W/m² | - |
| 1777718470 | 23.33° C | 39% | 1020.6 hPa | 0 mm | - | 632 W/m² | - |
| 1777717870 | 22.78° C | 37% | 1020.8 hPa | 0 mm | - | 589 W/m² | - |
| 1777717270 | 22.22° C | 36% | 1020.8 hPa | 0 mm | - | 625 W/m² | - |
| 1777716669 | 22.22° C | 39% | 1021 hPa | 0 mm | - | 694 W/m² | - |
| 1777716069 | 22.22° C | 37% | 1021.2 hPa | 0 mm | - | 729 W/m² | - |
| 1777715469 | 22.22° C | 41% | 1021.2 hPa | 0 mm | - | 718 W/m² | - |
| 1777714869 | 21.67° C | 41% | 1021.3 hPa | 0 mm | - | 708 W/m² | - |
| 1777714269 | 21.67° C | 39% | 1021.4 hPa | 0 mm | - | 695 W/m² | - |
| 1777713669 | 21.67° C | 42% | 1021.4 hPa | 0 mm | - | 683 W/m² | - |
| 1777713074 | 21.11° C | 45% | 1021.5 hPa | 0 mm | - | 667 W/m² | - |
| 1777712474 | 21.11° C | 46% | 1021.6 hPa | 0 mm | - | 652 W/m² | - |
| 1777711874 | 20.56° C | 48% | 1021.5 hPa | 0 mm | - | 635 W/m² | - |
| 1777711273 | 20° C | 48% | 1021.6 hPa | 0 mm | - | 619 W/m² | - |
| 1777710073 | 19.44° C | 49% | 1021.7 hPa | 0 mm | - | 582 W/m² | - |
| 1777709473 | 18.89° C | 49% | 1021.7 hPa | 0 mm | - | 563 W/m² | - |
| 1777708873 | 18.89° C | 51% | 1021.8 hPa | 0 mm | - | 543 W/m² | - |
| 1777708273 | 18.89° C | 49% | 1021.8 hPa | 0 mm | - | 522 W/m² | - |
| 1777707673 | 18.33° C | 50% | 1021.9 hPa | 0 mm | - | 500 W/m² | - |
* Rain latest hour (hover to see other rain measurements)
** Current wind speed in m/s (hover to see current wind gust speed)